| time (UTC) | temp F | wind direction | speed MPH | gust MPH | rain 1hr in | rain 24hr in | rain mn in | humidity % | barometer mb |
| 20260504141009 | 55 | 142 | 2.0 | 6.0 | 0.00 | 0.00 | 0.00 | 42 | 1012.3 |
| 20260504140507 | 55 | 203 | 2.0 | 6.0 | 0.00 | 0.00 | 0.00 | 41 | 1012.4 |
| 20260504130514 | 55 | 161 | 2.0 | 4.0 | 0.00 | 0.00 | 0.00 | 42 | 1012.5 |
| 20260504110508 | 43 | 224 | 1.0 | 2.0 | 0.00 | 0.00 | 0.00 | 59 | 1012.4 |
| 20260504100507 | 40 | 232 | 1.0 | 3.0 | 0.00 | 0.00 | 0.00 | 66 | 1012.2 |
| 20260504081520 | 41 | 209 | 1.0 | 3.0 | 0.00 | 0.00 | 0.00 | 65 | 1012.4 |
| 20260504081007 | 41 | 231 | 1.0 | 3.0 | 0.00 | 0.00 | 0.00 | 65 | 1012.4 |
| 20260504080512 | 41 | 240 | 1.0 | 3.0 | 0.00 | 0.00 | 0.00 | 64 | 1012.4 |
| 20260504050505 | 41 | 216 | 1.0 | 4.0 | 0.00 | 0.00 | 0.00 | 63 | 1012.2 |
| 20260504050010 | 41 | 269 | 1.0 | 4.0 | 0.00 | 0.00 | 0.00 | 63 | 1012.2 |
| 20260504045505 | 41 | 209 | 1.0 | 3.0 | 0.00 | 0.00 | 0.00 | 63 | 1012.2 |
| 20260504045010 | 41 | 198 | 1.0 | 3.0 | 0.00 | 0.00 | 0.00 | 62 | 1012.2 |
| 20260504044520 | 42 | 226 | 1.0 | 3.0 | 0.00 | 0.00 | 0.00 | 61 | 1012.1 |
| 20260504044006 | 42 | 213 | 1.0 | 3.0 | 0.00 | 0.00 | 0.00 | 61 | 1012.2 |
| 20260504043507 | 42 | 214 | 1.0 | 2.0 | 0.00 | 0.00 | 0.00 | 61 | 1012.1 |
| 20260504043020 | 42 | 243 | 1.0 | 2.0 | 0.00 | 0.00 | 0.00 | 60 | 1012.1 |
| 20260504042506 | 42 | 199 | 1.0 | 2.0 | 0.00 | 0.00 | 0.00 | 60 | 1012.0 |
| 20260504042004 | 42 | 227 | 1.0 | 2.0 | 0.00 | 0.00 | 0.00 | 60 | 1011.9 |
| 20260504041523 | 42 | 219 | 1.0 | 2.0 | 0.00 | 0.00 | 0.00 | 60 | 1011.9 |
| 20260504041008 | 42 | 210 | 1.0 | 3.0 | 0.00 | 0.00 | 0.00 | 61 | 1011.9 |
| 20260504040502 | 42 | 193 | 1.0 | 3.0 | 0.00 | 0.00 | 0.00 | 60 | 1011.8 |
| 20260504040007 | 42 | 208 | 1.0 | 2.0 | 0.00 | 0.00 | 0.00 | 60 | 1011.8 |
| 20260504035502 | 42 | 199 | 1.0 | 3.0 | 0.00 | 0.00 | 0.00 | 60 | 1011.8 |
| 20260504035003 | 42 | 229 | 1.0 | 3.0 | 0.00 | 0.00 | 0.00 | 59 | 1011.6 |
| 20260504034511 | 42 | 219 | 1.0 | 3.0 | 0.00 | 0.00 | 0.00 | 60 | 1011.7 |
| 20260504034003 | 42 | 224 | 1.0 | 2.0 | 0.00 | 0.00 | 0.00 | 59 | 1011.6 |
| 20260504033504 | 42 | 214 | 1.0 | 2.0 | 0.00 | 0.00 | 0.00 | 59 | 1011.7 |
| 20260504033016 | 43 | 216 | 1.0 | 2.0 | 0.00 | 0.00 | 0.00 | 60 | 1011.7 |
| 20260504032506 | 43 | 216 | 0.0 | 2.0 | 0.00 | 0.00 | 0.00 | 60 | 1011.7 |
| 20260504032007 | 43 | 215 | 1.0 | 2.0 | 0.00 | 0.00 | 0.00 | 59 | 1011.8 |
| 20260504031521 | 43 | 217 | 1.0 | 2.0 | 0.00 | 0.00 | 0.00 | 60 | 1011.8 |
| 20260504031007 | 43 | 225 | 0.0 | 2.0 | 0.00 | 0.00 | 0.00 | 60 | 1011.8 |
| 20260504030507 | 42 | 212 | 1.0 | 2.0 | 0.00 | 0.00 | 0.00 | 60 | 1011.7 |
| 20260504030034 | 42 | 221 | 1.0 | 2.0 | 0.00 | 0.00 | 0.00 | 60 | 1011.7 |
| 20260504025510 | 42 | 217 | 1.0 | 2.0 | 0.00 | 0.00 | 0.00 | 60 | 1011.7 |
| 20260504025012 | 43 | 226 | 1.0 | 2.0 | 0.00 | 0.00 | 0.00 | 60 | 1011.8 |
| 20260504024507 | 42 | 245 | 0.0 | 2.0 | 0.00 | 0.00 | 0.00 | 60 | 1011.8 |
| 20260504024002 | 42 | 244 | 0.0 | 2.0 | 0.00 | 0.00 | 0.00 | 60 | 1011.8 |
| 20260504023503 | 43 | 224 | 0.0 | 2.0 | 0.00 | 0.00 | 0.00 | 59 | 1011.8 |
| 20260504023012 | 43 | 226 | 0.0 | 2.0 | 0.00 | 0.00 | 0.00 | 59 | 1011.9 |
| 20260504022505 | 43 | 240 | 0.0 | 2.0 | 0.00 | 0.00 | 0.00 | 59 | 1011.9 |
| 20260504022006 | 43 | 220 | 0.0 | 2.0 | 0.00 | 0.00 | 0.00 | 58 | 1011.9 |
| 20260504021516 | 43 | 232 | 0.0 | 2.0 | 0.00 | 0.00 | 0.00 | 58 | 1011.9 |
| 20260504021007 | 43 | 220 | 0.0 | 2.0 | 0.00 | 0.00 | 0.00 | 57 | 1011.9 |
| 20260504020507 | 44 | 224 | 0.0 | 2.0 | 0.00 | 0.00 | 0.00 | 55 | 1011.9 |
| 20260504020032 | 44 | 250 | 0.0 | 2.0 | 0.00 | 0.00 | 0.00 | 56 | 1011.9 |
| 20260504015507 | 44 | 224 | 0.0 | 1.0 | 0.00 | 0.00 | 0.00 | 55 | 1011.9 |
| 20260504015006 | 44 | 229 | 0.0 | 2.0 | 0.00 | 0.00 | 0.00 | 54 | 1011.9 |
| 20260504014522 | 44 | 229 | 1.0 | 2.0 | 0.00 | 0.00 | 0.00 | 53 | 1011.8 |
| 20260504014009 | 44 | 256 | 0.0 | 2.0 | 0.00 | 0.00 | 0.00 | 54 | 1011.7 |
| 20260504013513 | 45 | 228 | 0.0 | 2.0 | 0.00 | 0.00 | 0.00 | 53 | 1011.7 |
| 20260504013033 | 45 | 245 | 0.0 | 2.0 | 0.00 | 0.00 | 0.00 | 53 | 1011.6 |
| 20260504012502 | 45 | 217 | 1.0 | 2.0 | 0.00 | 0.00 | 0.00 | 53 | 1011.7 |
| 20260504012003 | 45 | 212 | 0.0 | 2.0 | 0.00 | 0.00 | 0.00 | 54 | 1011.7 |
| 20260504011514 | 45 | 220 | 0.0 | 1.0 | 0.00 | 0.00 | 0.00 | 53 | 1011.7 |
| 20260504011002 | 45 | 233 | 0.0 | 1.0 | 0.00 | 0.00 | 0.00 | 52 | 1011.5 |
| 20260504010508 | 46 | 225 | 0.0 | 1.0 | 0.00 | 0.00 | 0.00 | 51 | 1011.5 |
| 20260504010018 | 46 | 217 | 0.0 | 1.0 | 0.00 | 0.00 | 0.00 | 51 | 1011.4 |
| 20260504005507 | 46 | 217 | 0.0 | 1.0 | 0.00 | 0.00 | 0.00 | 49 | 1011.4 |
| 20260504005006 | 47 | 218 | 0.0 | 1.0 | 0.00 | 0.00 | 0.00 | 48 | 1011.3 |
| 20260504004536 | 47 | 231 | 0.0 | 1.0 | 0.00 | 0.00 | 0.00 | 48 | 1011.3 |
| 20260504004006 | 47 | 217 | 0.0 | 2.0 | 0.00 | 0.00 | 0.00 | 47 | 1011.2 |
| 20260504003510 | 48 | 224 | 0.0 | 2.0 | 0.00 | 0.00 | 0.00 | 47 | 1011.2 |
| 20260504003023 | 48 | 224 | 0.0 | 3.0 | 0.00 | 0.00 | 0.00 | 46 | 1011.2 |
| 20260504002507 | 48 | 190 | 1.0 | 3.0 | 0.00 | 0.00 | 0.00 | 46 | 1011.2 |
| 20260504002007 | 48 | 207 | 0.0 | 2.0 | 0.00 | 0.00 | 0.00 | 47 | 1011.1 |
| 20260504001534 | 48 | 200 | 1.0 | 2.0 | 0.00 | 0.00 | 0.00 | 45 | 1011.1 |
| 20260504001003 | 48 | 150 | 0.0 | 1.0 | 0.00 | 0.00 | 0.00 | 46 | 1011.0 |
| 20260504000504 | 49 | 219 | 0.0 | 2.0 | 0.00 | 0.00 | 0.00 | 45 | 1011.1 |
| 20260504000012 | 49 | 226 | 0.0 | 2.0 | 0.00 | 0.00 | 0.00 | 44 | 1011.0 |
| 20260503235503 | 49 | 228 | 0.0 | 2.0 | 0.00 | 0.00 | 0.00 | 45 | 1011.0 |
| 20260503235004 | 49 | 231 | 0.0 | 2.0 | 0.00 | 0.00 | 0.00 | 43 | 1010.9 |
| 20260503234519 | 50 | 218 | 0.0 | 2.0 | 0.00 | 0.00 | 0.00 | 44 | 1010.7 |
| 20260503234006 | 50 | 208 | 0.0 | 4.0 | 0.00 | 0.00 | 0.00 | 42 | 1010.7 |
| 20260503233509 | 50 | 228 | 0.0 | 4.0 | 0.00 | 0.00 | 0.00 | 43 | 1010.6 |
| 20260503233024 | 50 | 226 | 0.0 | 4.0 | 0.00 | 0.00 | 0.00 | 40 | 1010.6 |
| 20260503232507 | 50 | 208 | 1.0 | 4.0 | 0.00 | 0.00 | 0.00 | 41 | 1010.6 |
| 20260503232011 | 51 | 274 | 1.0 | 4.0 | 0.00 | 0.00 | 0.00 | 40 | 1010.5 |
| 20260503231524 | 51 | 140 | 1.0 | 3.0 | 0.00 | 0.00 | 0.00 | 41 | 1010.5 |
| 20260503231008 | 51 | 206 | 0.0 | 3.0 | 0.00 | 0.00 | 0.00 | 42 | 1010.5 |
| 20260503230511 | 51 | 30 | 0.0 | 2.0 | 0.00 | 0.00 | 0.00 | 42 | 1010.5 |
| 20260503230028 | 51 | 229 | 0.0 | 3.0 | 0.00 | 0.00 | 0.00 | 41 | 1010.4 |
| 20260503225509 | 51 | 224 | 1.0 | 3.0 | 0.00 | 0.00 | 0.00 | 40 | 1010.4 |
| 20260503225003 | 51 | 250 | 1.0 | 5.0 | 0.00 | 0.00 | 0.00 | 40 | 1010.4 |
| 20260503224513 | 51 | 259 | 1.0 | 5.0 | 0.00 | 0.00 | 0.00 | 39 | 1010.4 |
| 20260503224004 | 51 | 118 | 0.0 | 2.0 | 0.00 | 0.00 | 0.00 | 42 | 1010.4 |
| 20260503223508 | 51 | 287 | 1.0 | 6.0 | 0.00 | 0.00 | 0.00 | 39 | 1010.4 |
| 20260503223020 | 51 | 222 | 1.0 | 6.0 | 0.00 | 0.00 | 0.00 | 39 | 1010.4 |
| 20260503222507 | 51 | 202 | 1.0 | 6.0 | 0.00 | 0.00 | 0.00 | 38 | 1010.4 |
| 20260503222010 | 52 | 222 | 1.0 | 3.0 | 0.00 | 0.00 | 0.00 | 39 | 1010.4 |
| 20260503221522 | 51 | 276 | 1.0 | 5.0 | 0.00 | 0.00 | 0.00 | 38 | 1010.3 |
| 20260503221009 | 51 | 346 | 1.0 | 5.0 | 0.00 | 0.00 | 0.00 | 38 | 1010.2 |
| 20260503220510 | 52 | 290 | 2.0 | 5.0 | 0.00 | 0.00 | 0.00 | 38 | 1010.4 |
| 20260503220031 | 51 | 287 | 1.0 | 5.0 | 0.00 | 0.00 | 0.00 | 38 | 1010.4 |
| 20260503215504 | 51 | 245 | 1.0 | 4.0 | 0.00 | 0.00 | 0.00 | 38 | 1010.4 |
| 20260503215005 | 51 | 46 | 1.0 | 8.0 | 0.00 | 0.00 | 0.00 | 38 | 1010.3 |
| 20260503214522 | 51 | 290 | 2.0 | 8.0 | 0.00 | 0.00 | 0.00 | 37 | 1010.2 |
| 20260503214006 | 51 | 75 | 1.0 | 5.0 | 0.00 | 0.00 | 0.00 | 37 | 1010.1 |
| 20260503213506 | 52 | 229 | 1.0 | 6.0 | 0.00 | 0.00 | 0.00 | 37 | 1010.1 |
| 20260503213028 | 52 | 62 | 2.0 | 6.0 | 0.00 | 0.00 | 0.00 | 35 | 1010.0 |
| 20260503212504 | 52 | 226 | 3.0 | 6.0 | 0.00 | 0.00 | 0.00 | 36 | 1009.8 |
| 20260503212015 | 52 | 221 | 1.0 | 4.0 | 0.00 | 0.00 | 0.00 | 36 | 1009.9 |
| 20260503211504 | 52 | 188 | 0.0 | 5.0 | 0.00 | 0.00 | 0.00 | 36 | 1009.8 |
| 20260503211003 | 52 | 237 | 1.0 | 5.0 | 0.00 | 0.00 | 0.00 | 36 | 1009.8 |
| 20260503210507 | 52 | 262 | 2.0 | 4.0 | 0.00 | 0.00 | 0.00 | 35 | 1009.9 |
| 20260503210006 | 52 | 271 | 0.0 | 10.0 | 0.00 | 0.00 | 0.00 | 34 | 1010.0 |
| 20260503205503 | 52 | 21 | 2.0 | 10.0 | 0.00 | 0.00 | 0.00 | 33 | 1009.9 |
| 20260503205007 | 53 | 223 | 2.0 | 10.0 | 0.00 | 0.00 | 0.00 | 32 | 1009.9 |
| 20260503204521 | 53 | 219 | 1.0 | 6.0 | 0.00 | 0.00 | 0.00 | 34 | 1010.0 |
| 20260503204004 | 52 | 228 | 2.0 | 6.0 | 0.00 | 0.00 | 0.00 | 33 | 1010.0 |
| 20260503203508 | 52 | 271 | 1.0 | 6.0 | 0.00 | 0.00 | 0.00 | 33 | 1010.0 |
| 20260503203013 | 52 | 206 | 1.0 | 6.0 | 0.00 | 0.00 | 0.00 | 34 | 1010.0 |
| 20260503202511 | 52 | 344 | 2.0 | 8.0 | 0.00 | 0.00 | 0.00 | 34 | 1010.1 |
| 20260503202006 | 51 | 279 | 3.0 | 8.0 | 0.00 | 0.00 | 0.00 | 32 | 1009.9 |
| 20260503201518 | 52 | 117 | 1.0 | 6.0 | 0.00 | 0.00 | 0.00 | 35 | 1010.0 |
| 20260503201004 | 52 | 201 | 1.0 | 6.0 | 0.00 | 0.00 | 0.00 | 34 | 1009.9 |
| 20260503200510 | 52 | 221 | 2.0 | 11.0 | 0.00 | 0.00 | 0.00 | 34 | 1009.9 |
| 20260503200004 | 52 | 240 | 2.0 | 11.0 | 0.00 | 0.00 | 0.00 | 33 | 1010.0 |
| 20260503195503 | 52 | 32 | 2.0 | 5.0 | 0.00 | 0.00 | 0.00 | 35 | 1010.1 |
| 20260503195003 | 52 | 244 | 1.0 | 7.0 | 0.00 | 0.00 | 0.00 | 36 | 1010.3 |
| 20260503194504 | 51 | 187 | 3.0 | 7.0 | 0.00 | 0.00 | 0.00 | 35 | 1010.4 |
| 20260503194003 | 51 | 257 | 1.0 | 6.0 | 0.00 | 0.00 | 0.00 | 37 | 1010.4 |
| 20260503193503 | 51 | 210 | 1.0 | 6.0 | 0.00 | 0.00 | 0.00 | 34 | 1010.6 |
| 20260503193008 | 51 | 245 | 2.0 | 6.0 | 0.00 | 0.00 | 0.00 | 35 | 1010.5 |
| 20260503192504 | 51 | 188 | 1.0 | 7.0 | 0.00 | 0.00 | 0.00 | 36 | 1010.6 |
| 20260503192003 | 50 | 198 | 2.0 | 7.0 | 0.00 | 0.00 | 0.00 | 35 | 1010.6 |
| 20260503191511 | 51 | 205 | 1.0 | 5.0 | 0.00 | 0.00 | 0.00 | 38 | 1010.7 |
| 20260503191005 | 51 | 293 | 1.0 | 8.0 | 0.00 | 0.00 | 0.00 | 37 | 1010.6 |
| 20260503190504 | 51 | 264 | 2.0 | 8.0 | 0.00 | 0.00 | 0.00 | 36 | 1010.6 |
| 20260503190017 | 50 | 226 | 2.0 | 6.0 | 0.00 | 0.00 | 0.00 | 37 | 1010.7 |
| 20260503185506 | 49 | 24 | 1.0 | 5.0 | 0.00 | 0.00 | 0.00 | 37 | 1010.8 |
| 20260503185005 | 50 | 204 | 1.0 | 8.0 | 0.00 | 0.00 | 0.00 | 36 | 1011.0 |
| 20260503184524 | 49 | 132 | 2.0 | 10.0 | 0.00 | 0.00 | 0.00 | 39 | 1010.9 |
| 20260503184001 | 50 | 259 | 3.0 | 10.0 | 0.00 | 0.00 | 0.00 | 39 | 1010.9 |
| 20260503183503 | 49 | 307 | 2.0 | 8.0 | 0.00 | 0.00 | 0.00 | 37 | 1011.1 |
| 20260503183008 | 50 | 57 | 1.0 | 6.0 | 0.00 | 0.00 | 0.00 | 38 | 1010.9 |
| 20260503182502 | 50 | 13 | 2.0 | 7.0 | 0.00 | 0.00 | 0.00 | 37 | 1011.0 |
| 20260503182002 | 49 | 342 | 2.0 | 12.0 | 0.00 | 0.00 | 0.00 | 36 | 1011.0 |
| 20260503181523 | 50 | 1 | 3.0 | 12.0 | 0.00 | 0.00 | 0.00 | 38 | 1011.0 |
| 20260503181004 | 51 | 317 | 2.0 | 10.0 | 0.00 | 0.00 | 0.00 | 38 | 1011.0 |
| 20260503180507 | 49 | 231 | 3.0 | 10.0 | 0.00 | 0.00 | 0.00 | 37 | 1010.9 |
| 20260503180027 | 50 | 345 | 2.0 | 10.0 | 0.00 | 0.00 | 0.00 | 38 | 1011.1 |
| 20260503175511 | 49 | 195 | 3.0 | 10.0 | 0.00 | 0.00 | 0.00 | 36 | 1011.1 |
| 20260503175005 | 50 | 204 | 2.0 | 8.0 | 0.00 | 0.00 | 0.00 | 39 | 1011.1 |
| 20260503174519 | 50 | 51 | 2.0 | 6.0 | 0.00 | 0.00 | 0.00 | 37 | 1011.1 |
| 20260503174008 | 49 | 212 | 2.0 | 8.0 | 0.00 | 0.00 | 0.00 | 37 | 1011.1 |
| 20260503173508 | 49 | 268 | 2.0 | 8.0 | 0.00 | 0.00 | 0.00 | 37 | 1011.3 |
| 20260503173020 | 49 | 224 | 3.0 | 7.0 | 0.00 | 0.00 | 0.00 | 38 | 1011.3 |
| 20260503172505 | 49 | 201 | 3.0 | 7.0 | 0.00 | 0.00 | 0.00 | 37 | 1011.3 |
| 20260503172002 | 49 | 116 | 1.0 | 7.0 | 0.00 | 0.00 | 0.00 | 37 | 1011.2 |
| 20260503171520 | 49 | 203 | 2.0 | 8.0 | 0.00 | 0.00 | 0.00 | 40 | 1011.4 |
| 20260503171003 | 47 | 223 | 3.0 | 8.0 | 0.00 | 0.00 | 0.00 | 39 | 1011.4 |
| 20260503170504 | 47 | 212 | 2.0 | 9.0 | 0.00 | 0.00 | 0.00 | 40 | 1011.3 |
| 20260503151005 | 42 | 231 | 1.0 | 6.0 | 0.00 | 0.00 | 0.00 | 48 | 1012.0 |
| 20260503150507 | 42 | 301 | 2.0 | 6.0 | 0.00 | 0.00 | 0.00 | 48 | 1011.9 |